Tracking 17856 objects as of 28-September-2016
HD Live streaming from Space Station
objects crossing your sky now

THORAD AGENA D DEB

Track THORAD AGENA D DEB now!
10-day predictions


NORAD ID: 4768
Int'l Code: 1970-025DN
Perigee: 985.8 km
Apogee: 1,030.9 km
Inclination: 100.2 °
Period: 105.1 minutes
Semi major axis: 7379 km
RCS: 0.064 m2 (small)
Launch date: April 8, 1970
Source: United States (US)
Launch site: AIR FORCE WESTERN TEST RANGE (AFWTR)

Note: This is SATELLITE DEBRIS
Your satellite tracking list
Your tracking list is empty





NASA's NSSDC Master Catalog

Two Line Element Set (TLE):
1 04768U 70025DN  16272.02833325  .00000093  00000-0  16306-3 0  9994
2 04768 100.1826  66.7505 0030568 356.8448 113.0372 13.69542678312323
Source of the keplerian elements: AFSPC

N2YO: 602